Weather in Punta Ala

Italy     42°48′16″N   10°45′51″E
temp.,
°C
wind,
m/s
gust,
m/s
humid.,
%
clouds,
%
prec.,
mm/h
press.,
hPa
HPBL,
m
6 may, thu
thu623:00+15e66860 0.0 1012151
02:00+14e67885 0.0 1012190
05:00+15ese798689 0.0 1012356
08:00+15ese6884100 0.0 1013338
11:00+16se69815 0.0 1014399
14:00+16sse45794 0.0 1014137
17:00+17sse56771 0.0 1013183
20:00+16se79845 0.0 1013271
7 may, fri
fri723:00+16sse698322 0.0 1013407
02:00+16ese798563 0.0 1013406
05:00+15ese77895 0.0 1012234
08:00+15ese79862 0.0 1012377
11:00+16se788599 0.0 1012253
14:00+16sse898699 0.0 1011223
17:00+17ese448285 0.0 1011107
20:00+17se5575100 0.0 101250
8 may, sat
sat823:00+16ese678387 0.0 1013126
02:00+16e567816 0.0 1013128
05:00+14ene56750 0.0 1015142
08:00+15ne447868 0.0 1016147
11:00+16wsw227386 0.0 1017120
14:00+17w568029 0.0 1018198
17:00+17wnw57805 0.0 1017163
20:00+17nw56830 0.0 1018119
9 may, sun
sun923:00+17nnw33810 0.0 101856
02:00+16ne11810 0.0 101929
05:00+15e33810 0.0 101899
08:00+15e44760 0.0 1019140
11:00+16sse45765 0.0 1019181
14:00+17sse568557 0.0 1018196
17:00+17sse5783100 0.0 1017216
20:00+17se6986100 0.0 1017248
10 may, mon
mon1023:00+16ese588698 0.0 1018224
02:00+16ese69865 0.0 1018309
05:00+16ese610825 0.0 1017357
08:00+16ese6117714 0.0 1018359
11:00+17se913795 0.0 1017323
14:00+17se914812 0.0 1017316
17:00+18se101577100 0.0 1016324
20:00+18se71280100 0.0 1016236